Regional Weather Roundup
Issued by NWS

Home | Current Version | Previous Version | Text Only | Print | Product List | Glossary On
Versions: 1 2 3 4 5 6 7 8 9 10 11 12 13 14 15 16 17 18 19 20 21 22 23 24 25 26 27 28 29 30 31 32 33 34 35 36 37 38 39 40 41 42 43 44 45 46 47 48 49 50
000
ASUS45 KABQ 281501
RWRNM
NEW MEXICO REGIONAL WEATHER ROUNDUP
NATIONAL WEATHER SERVICE ALBUQUERQUE NM
800 AM MST TUE FEB 28 2017

NOTE: "FAIR" MEANS FEW OR NO CLOUDS BELOW 12,000 FEET AGL WITH NO
       SIGNIFICANT WEATHER OR OBSTRUCTIONS TO VISION.

      THIS PRODUCT IS RELEASED AS TWO VERSIONS.  ONE VERSION NEAR
      THE TOP OF THE HOUR CONTAINING PRELIMINARY DATA FROM ALBUQUERQUE
      AND OTHER STATIONS.  A FINAL VERSION WITH ADDITIONAL DATA IS
      ISSUED ABOUT 10 MINUTES AFTER THE HOUR.

NMZ501-503-504-510>518-281600-
NORTHWEST PLATEAU/NORTHCENTRAL MOUNTAINS

CITY           SKY/WX    TMP DP  RH WIND       PRES   REMARKS
FARMINGTON     LGT SNOW  32  31  96 W9        29.79R FOG     WCI  24
LOS ALAMOS     CLOUDY    38  29  71 S16G24    29.81S WCI  29
SANTA FE       CLOUDY    42  28  57 SW7       29.81R
TAOS             N/A     36  25  64 SW16G22   29.77S WCI  26
ANGEL FIRE     SNOW      31  28  90 SW17G26   29.77S VSB 1/2 WCI  19

$$
NMZ402-403-502-505>509-281600-
WESTCENTRAL MOUNTAINS/SOUTHWEST MOUNTAINS

CITY           SKY/WX    TMP DP  RH WIND       PRES   REMARKS
GALLUP         LGT SNOW  33  31  92 SW18      29.82R VSB 3/4 WCI  22
GRANTS         LGT RAIN  38  29  69 SW26G32   29.84R WCI  27
SILVER CITY    FAIR      49  25  39 SW8       29.96R

$$
NMZ407-409-411-412-281600-
SOUTHERN DESERTS

CITY           SKY/WX    TMP DP  RH WIND       PRES   REMARKS
DEMING         FAIR      56  23  27 SW14      29.92S
LAS CRUCES     FAIR      52  19  27 S7        29.96R
HOLLOMAN AFB   FAIR      53  20  27 S14       29.96S
ALAMOGORDO     FAIR      55  19  24 S15       29.95R
T OR C         FAIR      54  22  28 SW17G26   29.87R

$$
NMZ519>523-281600-
CENTRAL VALLEYS/CENTRAL HIGHLANDS

CITY           SKY/WX    TMP DP  RH WIND       PRES   REMARKS
ALBUQUERQUE    FAIR      47  27  45 S15       29.81S
DOUBLE EAGLE   MOSUNNY   46  28  49 S20G30    29.80F
MORIARTY ARPT  FAIR      48  21  34 SW26G39   29.82R
CLINES CORNERS FAIR      40  23  50 SW33G40   29.81S WCI  28
BELEN          FAIR      49  21  33 SW17G25   29.81S
SOCORRO        FAIR      54   9  16 SW32G43   29.81R

$$
NMZ524>526-539-540-281600-
SOUTHCENTRAL MOUNTAINS

CITY           SKY/WX    TMP DP  RH WIND       PRES   REMARKS
RUIDOSO        NOT AVBL

$$
NMZ527>531-281600-
NORTHEAST HIGHLANDS/NORTHEAST PLAINS

CITY           SKY/WX    TMP DP  RH WIND       PRES   REMARKS
LAS VEGAS      FAIR      43  28  55 SW24      29.77S
RATON          FAIR      45  27  49 SW15      29.69S
CLAYTON        FAIR      49  31  49 SW24G35   29.70R

$$
NMZ532>537-281600-
EASTCENTRAL PLAINS

CITY           SKY/WX    TMP DP  RH WIND       PRES   REMARKS
TUCUMCARI      FAIR      56  27  32 SW20      29.75S
CANNON AFB     PTSUNNY   53  27  35 SW15      29.84R
CLOVIS AIRPORT FAIR      54  27  35 SW14      29.85R

$$
NMZ028-029-538-281600-
SOUTHEAST PLAINS

CITY           SKY/WX    TMP DP  RH WIND       PRES   REMARKS
ROSWELL        FAIR      55  20  25 S14         N/A
ARTESIA        FAIR      59  21  23 S15       29.89R
CARLSBAD       FAIR      63  18  17 SW12      29.89R
HOBBS          SUNNY     54  27  35 S12       29.93R


$$




USA.gov is the U.S. government's official web portal to all federal, state and local government web resources and services.